Location: Gesso
(44.4000°N, 7.5500°E)
Time: 10:59:16
(UTC+00:00)

Daily predictions for brighter satellites

Satellite Brightness Start Highest point End
(mag) Time Altitude Azimuth Time Altitude Azimuth Time Altitude Azimuth
PAYLOAD B 4.3 18:38:34 10° SSE 18:44:05 73° ENE 18:49:40 10° N
Cosmos 2181 Rocket 4.0 18:38:49 10° S 18:44:56 68° E 18:51:11 10° NNE
In-Cosmos 22 Rocket 4.4 18:39:38 10° N 18:44:58 53° ENE 18:50:24 10° SSE
Cosmos 1025 Rocket 3.2 18:41:16 10° N 18:45:39 82° W 18:50:01 10° S
Cosmos 1992 Rocket 4.0 18:42:26 10° S 18:47:33 65° ESE 18:52:44 10° NNE
SL-08 R/B 4.4 18:43:43 10° N 18:48:18 52° WNW 18:52:57 10° SSW
CZ-4C R/B 4.4 18:44:12 10° NNW 18:49:08 21° NNE 18:54:50 10° ENE
Meteor 1-21 Rocket 4.5 18:45:18 10° N 18:51:16 87° W 18:57:10 10° S
Cosmos 2297 Rocket 3.9 18:50:13 10° N 18:54:06 18° NE 18:57:58 10° E
Cosmos 2369 Rocket 3.7 18:50:43 10° SW 18:56:06 43° WNW 19:01:30 10° NNE
BlueWalker 3 2.6 18:56:34 10° SSW 18:59:58 32° SE 19:03:25 10° ENE
Meteor 1-11 4.3 18:55:51 10° N 19:01:29 62° ENE 19:07:09 10° SSE
Terra 4.0 19:03:38 10° ENE 19:04:05 10° ENE 19:04:32 10° NE
ATLAS 5 CENTAUR R/B 1.1 19:01:01 10° SW 19:04:19 75° NW 19:07:57 10° NE
Cosmos 2098 Rocket 3.0 19:02:02 10° S 19:06:55 70° E 19:10:53 10° NNE
PSLV R/B 3.9 19:03:20 10° SSE 19:06:55 50° ENE 19:10:35 10° N
CARTOSAT-1 3.8 19:03:31 10° SE 19:07:37 48° ENE 19:11:44 10° N
Cosmos 1455 3.7 19:05:55 10° SSW 19:09:15 37° WNW 19:12:35 10° N
Cosmos 2366 rocket 4.5 19:04:24 10° NNW 19:10:43 68° W 19:17:00 10° S
Resurs 1-3 4.3 19:06:49 10° S 19:11:04 55° W 19:15:21 10° NNW
Okean-O 3.5 19:11:08 12° SE 19:14:43 33° ENE 19:18:40 10° N
CZ-4B R/B 3.4 19:11:04 10° SSE 19:16:42 83° WSW 19:22:19 10° NNW
Cosmos 1975 Rocket 3.3 19:12:34 10° NNW 19:16:53 71° W 19:21:09 10° S
Nadezhda 3 Rocket 4.0 19:15:08 10° S 19:21:08 59° E 19:27:13 10° NNE
CZ-4C R/B 3.8 19:19:37 10° NE 19:22:37 28° E 19:24:53 14° SSE
USA 186 2.1 19:20:21 10° S 19:23:21 59° W 19:26:20 10° NNW
Cosmos 44 4.4 19:19:24 10° SSE 19:23:48 26° ESE 19:28:12 10° ENE
Cosmos 1821 Rocket 4.0 19:18:18 10° N 19:24:30 88° E 19:30:36 10° S
Genesis I 4.2 19:21:42 10° NNW 19:24:54 28° NE 19:26:55 17° E
SL-27 R/B 2.4 19:22:17 10° NNW 19:25:09 58° WSW 19:27:52 11° S
SPOT 1/Viking Rocket 4.2 19:20:13 10° S 19:25:21 59° W 19:30:31 10° NNW
BREEZE-M R/B 3.3 19:23:35 10° NW 19:25:57 29° N 19:27:40 14° ENE
USA 267 3.9 19:21:03 10° NE 19:27:29 60° NNW 19:33:53 10° WSW
Okean O Rocket 1.6 19:25:04 10° SSE 19:29:24 89° ESE 19:33:49 10° NNW
Feng Yun 1-1 Rocket 4.5 19:24:47 10° S 19:30:18 75° WSW 19:36:01 10° NNW
CZ-4 R/B 3.2 19:31:08 10° SSW 19:34:37 30° W 19:38:04 10° NNW
Cosmos 1486 Rocket 4.0 19:31:00 10° NNW 19:36:14 87° WSW 19:40:55 13° SSE
Atlas Centaur 2 3.6 19:33:55 10° SSW 19:36:22 13° S 19:37:20 13° SSE
Cosmos 1536 Rocket 3.7 19:38:37 10° N 19:42:59 58° E 19:45:49 21° SSE
SJ 16-02 4.0 19:41:12 10° NW 19:44:00 17° W 19:46:48 10° SW
Resurs 01 Rocket 2.1 19:39:50 10° S 19:44:12 62° W 19:48:36 10° NNW
MOS 1 4.4 19:43:34 18° SSE 19:47:50 64° ENE 19:53:29 10° N
CENTAUR R/B 4.5 19:43:49 10° NNW 19:50:29 29° NNE 19:57:39 11° E
NOSS 3-1 (A) 3.3 19:45:54 10° SW 19:50:47 72° NW 19:56:40 10° NE
ERS-1 Rocket 3.8 19:51:27 25° ESE 19:53:26 34° ENE 19:57:56 10° N
Tiangong -1.1 19:54:59 10° SW 19:57:17 31° S 19:57:17 31° S
USA 229 DEB 3.6 19:53:45 10° SSW 19:59:34 51° ESE 20:05:56 10° NE
USA 229 3.6 19:53:51 10° SSW 19:59:40 51° ESE 20:06:02 10° NE
Cosmos 1339 Rocket 4.4 19:55:18 10° S 20:01:25 75° E 20:07:30 10° NNE
Cosmos 2151 Rocket 3.6 19:57:05 10° SSW 20:01:27 79° W 20:05:54 10° N
Cosmos 1934 Rocket 3.9 19:55:48 10° N 20:01:59 75° E 20:06:25 20° SSE
USA 234 3.5 19:58:35 22° SSE 20:03:01 63° SW 20:09:31 10° NW
USA 281 3.2 19:59:02 19° SSE 20:04:04 82° WSW 20:10:41 10° NNW
ATLAS CENTAUR R/B 3.3 20:06:40 10° N 20:09:00 16° NE 20:09:58 14° ENE
Cosmos 2227 Rocket 3.1 20:05:12 10° N 20:10:20 34° NE 20:12:21 26° E
Cosmos 1980 Rocket 4.2 20:13:32 11° ENE 20:13:32 11° ENE 20:14:00 10° ENE
Iridium 2 3.0 20:11:12 10° N 20:14:09 75° W 20:14:16 73° WSW
SL-4 R/B 2.9 20:13:45 10° NW 20:17:01 32° NNE 20:17:57 28° NE
Landsat 4 3.4 20:17:01 63° E 20:17:13 65° ENE 20:20:43 10° N
Cosmos 1892 Rocket 4.1 20:13:53 10° N 20:17:56 38° ENE 20:18:09 37° E
MetOp-B 4.1 20:15:37 29° SSE 20:18:26 88° ENE 20:23:50 10° NNW
Cosmos 371 Rocket 3.6 20:14:01 10° NNW 20:18:45 60° WSW 20:21:07 28° S
Cosmos 1697 Rocket 3.2 20:18:57 36° ESE 20:19:23 37° ESE 20:24:33 10° NE
Cosmos 2360 4.3 20:17:18 24° S 20:20:29 52° ESE 20:26:00 10° NE
Cosmos 304 Rocket 3.9 20:17:51 10° NNW 20:22:36 69° WSW 20:24:31 35° S
Cosmos 1777 Rocket 4.2 20:17:59 10° NNW 20:23:14 68° WSW 20:25:46 31° S
Okean 2 Rocket 4.0 20:19:12 10° SSW 20:23:34 50° WNW 20:27:58 10° N
ATLAS 3B R/B 3.7 20:17:55 10° WSW 20:24:50 51° NW 20:32:15 10° NNE
COSMOS 2455 3.0 20:19:53 10° NNW 20:25:53 61° NE 20:27:59 39° ESE
Alouette 2 Rocket 4.3 20:18:42 10° NNW 20:25:54 79° W 20:28:14 33° S
SPOT 5 3.1 20:26:03 32° S 20:28:38 79° WSW 20:33:55 10° NNW
SWARM A 4.3 20:27:20 10° N 20:30:55 81° W 20:31:01 79° SW
IRS-1A Rocket 4.4 20:28:48 32° SSE 20:31:42 85° WSW 20:37:36 10° NNW
Cosmos 405 Rocket 3.4 20:33:26 39° NE 20:33:26 39° NE 20:36:05 10° NNE
Cosmos 1898 Rocket 4.5 20:30:44 10° N 20:35:23 31° ENE 20:36:04 30° ENE
Spot 2 Rocket 3.5 20:36:25 53° SE 20:37:23 65° ENE 20:42:24 10° N
BlueWalker 3 2.9 20:34:26 10° WSW 20:38:07 46° NNW 20:40:36 19° NE
Cosmos 2297 Rocket 2.1 20:33:14 10° NNW 20:38:55 86° WSW 20:40:36 48° SSE
CZ-4C R/B 3.3 20:32:03 10° NNW 20:39:02 57° NE 20:42:37 34° ESE
Terra 1.7 20:40:08 62° SE 20:40:50 76° ENE 20:45:34 10° N
Cosmos 1656 4.1 20:37:05 10° SW 20:42:36 61° WNW 20:48:04 10° NNE
Cosmos 1455 Rocket 3.0 20:46:46 72° ENE 20:46:46 72° ENE 20:50:58 10° NNE
Okean 1 Rocket 4.1 20:44:00 19° SW 20:46:56 45° WNW 20:51:15 10° N
Iridium 4 Rocket 4.2 20:44:01 21° SSW 20:47:43 59° W 20:53:27 10° N
USA 245 3.9 20:46:54 50° S 20:48:12 76° WSW 20:52:42 10° NNW
Spot 1 4.4 20:45:07 10° NNE 20:49:02 53° ENE 20:49:02 53° ENE
Cosmos 332 Rocket 3.7 20:46:27 10° NNW 20:51:19 80° WSW 20:51:54 68° S
Cosmos 2219 3.8 20:48:29 10° NNW 20:53:49 41° ENE 20:54:32 39° ENE
Ariane Rocket 2.9 20:56:31 66° S 20:57:13 83° WSW 21:02:18 10° NNW
Cosmos 1763 Rocket 3.5 20:57:45 42° SSW 20:59:28 77° WNW 21:04:38 10° NNE
Cosmos 1437 Rocket 3.2 20:57:09 10° NNW 21:00:22 58° NNW 21:00:22 58° NNW
Cosmos 44 4.2 20:59:25 10° SW 21:04:43 54° NW 21:09:57 10° NNE
Cosmos 2263 Rocket 3.1 21:00:32 10° N 21:05:38 34° NE 21:06:06 34° ENE
ARGOS Delta rocket 4.0 21:08:36 76° SSE 21:09:02 88° E 21:14:32 10° N
Cosmos 990 Rocket 4.0 21:06:26 10° NNW 21:11:35 67° WSW 21:11:52 65° SW
Cosmos 2082 4.5 21:06:54 10° NNW 21:12:10 38° NE 21:12:29 37° ENE
Cosmos 2173 Rocket 4.0 21:10:14 10° N 21:16:34 62° E 21:17:01 60° E
Cosmos 540 Rocket 3.5 21:18:45 67° WSW 21:19:12 72° WNW 21:24:20 10° NNE
Meteor 2-3 Rocket 4.2 21:14:28 10° N 21:19:41 47° ENE 21:19:41 47° ENE
MOS 1 Rocket 3.7 21:25:22 54° NNW 21:25:22 54° NNW 21:28:49 10° NNW
Cosmos 2058 4.1 21:23:44 10° NNW 21:26:27 40° NNW 21:26:27 40° NNW
Cosmos 468 Rocket 4.4 21:31:31 56° W 21:32:05 59° WNW 21:37:16 10° NNE
ERS-1 Rocket 4.3 21:31:22 29° WSW 21:32:10 31° W 21:36:37 10° NNW
Cosmos 372 Rocket 4.2 21:27:30 10° NNW 21:32:09 66° NNE 21:32:09 66° NNE
SPOT 3 Rocket 4.3 21:35:46 42° WSW 21:36:04 42° W 21:41:01 10° NNW
Cosmos 1802 Rocket 4.0 21:32:47 10° N 21:38:59 67° ENE 21:38:59 67° ENE
Cosmos 841 Rocket 4.2 21:43:35 45° NNE 21:43:35 45° NNE 21:47:08 10° NNE
CENTAUR R/B 3.3 21:34:16 10° NW 21:42:35 74° NE 21:44:48 55° ESE
Cosmos 2016 Rocket 4.1 21:40:15 10° N 21:45:55 62° ENE 21:45:55 62° ENE
ATLAS CENTAUR R/B 3.3 21:43:22 10° NW 21:45:04 25° NW 21:45:04 25° NW
Cosmos 2100 Rocket 4.1 21:47:43 10° NNW 21:54:02 69° W 21:54:16 68° WSW
Cosmos 1980 Rocket 2.5 21:55:13 62° NNE 21:55:13 62° NNE 21:59:56 10° NNE
Cosmos 2227 Rocket 3.1 21:49:10 10° NW 21:54:10 40° W 21:54:10 40° W
Cosmos 1697 Rocket 4.0 22:00:32 23° WSW 22:03:19 36° NW 22:08:33 10° NNE
Cosmos 1937 Rocket 4.2 21:59:38 10° NNW 22:03:47 51° NW 22:03:47 51° NW
Cosmos 2123 Rocket 4.0 22:05:46 80° NNW 22:05:46 80° NNW 22:11:48 10° N
COSMOS 2455 4.4 22:06:36 10° NW 22:11:08 24° WSW 22:11:08 24° WSW
ARIANE 5 R/B 4.2 22:17:17 33° NNW 22:17:17 33° NNW 22:19:49 10° NNW
Terra 4.3 22:18:50 12° W 22:18:58 12° W 22:20:52 10° WNW
Cosmos 2369 4.3 22:27:50 53° NNW 22:27:50 53° NNW 22:32:33 10° NNE
CZ-4C R/B 3.7 22:20:37 10° NW 22:27:38 43° WSW 22:27:43 43° WSW
Lacrosse 4 Rocket 4.3 22:33:41 11° NNE 22:33:41 11° NNE 22:33:50 10° NNE
NOSS 3-2 (C) 4.3 22:25:57 10° NNW 22:33:17 61° NE 22:34:32 55° E
Cosmos 1725 Rocket 4.5 22:29:49 10° NNW 22:35:10 53° WNW 22:35:10 53° WNW
Cosmos 2233 Rocket 4.2 22:30:07 10° N 22:35:19 64° NNW 22:35:19 64° NNW
Cosmos 2061 Rocket 4.4 22:36:24 10° NNW 22:42:00 61° NW 22:42:00 61° NW
Cosmos 2360 Rocket 4.1 22:51:06 20° ENE 22:51:06 20° ENE 22:53:06 10° NE
Cosmos 2263 Rocket 3.6 22:44:25 10° NW 22:47:47 30° WNW 22:47:47 30° WNW
Cosmos 2333 Rocket 4.0 23:03:48 22° ENE 23:03:48 22° ENE 23:06:02 10° NE
Cosmos 2322 Rocket 3.7 23:03:59 29° NE 23:03:59 29° NE 23:06:48 10° NE
Lacrosse 5 4.3 23:05:56 15° NE 23:05:56 15° NE 23:06:46 10° NE
Cosmos 2219 Rocket 4.4 23:05:42 15° ENE 23:05:42 15° ENE 23:07:00 10° NE
NOSS 3-2 (A) 4.4 23:00:42 10° NW 23:07:20 55° W 23:07:20 55° W
SL-16 R/B 3.2 23:22:57 44° N 23:22:57 44° N 23:26:51 10° NNE
CENTAUR R/B 4.2 23:25:34 10° NW 23:31:56 33° W 23:31:56 33° W
USA 238 DEB 3.9 23:25:41 10° NW 23:32:58 77° NE 23:32:58 77° NE
USA 238 3.9 23:25:47 10° NW 23:33:05 76° NE 23:33:05 76° NE
Cosmos 1844 Rocket 3.8 23:28:46 10° NNW 23:32:09 38° NNW 23:32:09 38° NNW
Timation 2 Rocket 4.5 23:43:09 10° NNW 23:48:20 57° NNW 23:48:20 57° NNW
